STARLINK-30462, 57902

Orbit data source: Space-Track

STARLINK-30462, 57902 is a payload satellite owned by SpaceX/Seattle (US) in LEO that was launched on Wed, 20 Sep 2023 UTC via an FALCON 9 launch vehicle from the Air Force Eastern Test Range (AFETR). Payload-class satellites include a variety of spacecraft equipped with specific instruments for various scientific and technological missions. These include communications satellites like Starlink; space stations such as the ISS; scientific satellites like the Hubble; Earth observation satellites from companies like Planet Labs, Umbra, and HawkEye 360; GPS; miniature CubeSats for education and research; and military/defense satellites.

Loading next visibility...
Identifier
57902, 2023-146M
Orbit
LEO
Country
Flag of USUS
Related business
Manufacturer
SpaceX/Seattle
Mission
Operational Commercial Communications
Bus & Motor
STARLINK V2M, Unknown motor
Mass
730 kg wet, ~700 kg dry
Launch date (UTC)
2023-09-20 (3 years ago)
Launch vehicle
FALCON 9
Launch site
Air Force Eastern Test Range (AFETR)
Object type
Payload
Rocket body
Debris
Shape & HBR
Box + 2 Pan, 17.7 m
Radar Cross Section
33.884 m², Large (>1 m²)

Expand to show TLE details & history
Last TLE update: 2 days ago

TLE from 2 days ago
0 STARLINK-30462
1 57902U 23146M   26171.14892698 -.00000782  00000-0 -18921-4 0  9997
2 57902  43.0017  95.7727 0000751 284.5527  75.5242 15.27573325152680
Epoch: 2026-06-20T03:34Z
TLE epoch observation values (Epoch: 2026-06-20T03:34:27.291Z)
Latitude
0.00005°
Longitude
133.79134°
Altitude
482.716 km
Speed
7.626 km/s
True Right ascension
06h 23m 05s
True Declination
0° 00' 00"
Sunlit
Object was in daylight at epoch
Visualization orbit readout
Latitude
Unknown
Longitude
Unknown
Altitude
Unknown
Speed
Unknown
Apparent Right ascension
Unknown
Apparent Declination
Unknown
Sunlit
N/A
Visualization observer readout
Local Sidereal Time
21:36:45
Azimuth
Unknown
Elevation
Unknown
Doppler factor
Unknown
Orbital elements
Apogee altitude
485.529 km
Perigee altitude
484.499 km
Semi-major axis
6,863.151 km
Eccentricity
0.00008
Inclination
43.0017°
RAAN
95.7727°
Arg. of periapsis
284.5527°
True anomaly
75.53253°
Mean anomaly
75.5242°
Eccentric anomaly
75.52837°
Mean motion
3.81731 °/min
Orbital period
94.31 mins
BSTAR
-0.000018921
Loading maneuver chart data...
Computing Atmospheric mass density...
Loading historical data...
Loading historical data...
Loading historical data...
Loading historical data...
Loading historical data...
Loading historical data...
Loading historical data...

Documentation

Showing up to 5 results
|